�N����,����,�~����,�C��,���x,�C��,����,���ϕ���,�ő�u�ԕ���,�ő厞����,���˗�,�I�_���x,�n�����x,�ő啗���N��,DTYPE
"23/08/08","00:10",0.0,27.2,84.2,997.7,84.2,0.8,1.7,71.7,0.00,24.3,25.9,"00:05:20",1
"23/08/08","00:20",0.0,27.4,83.6,997.2,156.2,1.0,2.8,115.5,0.00,24.4,26.1,"00:17:28",1
"23/08/08","00:30",0.0,27.5,83.1,997.4,90.6,1.0,2.6,126.0,0.00,24.4,26.2,"00:28:32",1
"23/08/08","00:40",0.0,27.5,82.9,997.4,94.4,1.1,2.9,114.3,0.00,24.4,26.2,"00:32:32",1
"23/08/08","00:50",0.0,27.5,82.9,997.7,102.5,1.0,2.1,143.7,0.00,24.4,25.8,"00:48:00",1
"23/08/08","01:00",0.0,27.6,82.8,997.7,102.7,1.1,3.7,106.2,0.00,24.5,26.0,"00:55:20",1
"23/08/08","01:10",0.0,27.6,82.8,997.9,95.2,1.0,2.5,78.4,0.00,24.5,25.8,"01:09:20",1
"23/08/08","01:20",0.0,27.7,82.6,997.7,100.3,1.1,3.5,135.8,0.00,24.5,26.0,"01:16:56",1
"23/08/08","01:30",0.0,27.6,82.4,997.7,94.8,1.1,3.3,126.0,0.00,24.4,25.8,"01:28:08",1
"23/08/08","01:40",0.0,27.6,82.2,997.4,90.0,1.2,3.2,81.2,0.00,24.3,26.1,"01:30:48",1
"23/08/08","01:50",0.0,27.6,82.0,997.4,113.3,1.0,2.7,111.3,0.00,24.3,26.0,"01:41:04",1
"23/08/08","02:00",0.0,27.6,81.9,997.2,105.3,1.2,2.5,84.1,0.00,24.3,25.9,"01:54:00",1
"23/08/08","02:10",0.0,27.6,81.7,997.4,88.3,1.3,3.5,89.8,0.00,24.2,26.0,"02:09:12",1
"23/08/08","02:20",0.0,27.6,81.6,997.4,129.4,1.1,2.9,121.1,0.00,24.2,26.0,"02:18:08",1
"23/08/08","02:30",0.0,27.6,81.6,997.4,71.2,1.1,2.7,99.7,0.00,24.2,25.9,"02:26:16",1
"23/08/08","02:40",0.0,27.6,81.6,997.2,113.7,1.1,2.6,114.5,0.00,24.2,25.8,"02:30:56",1
"23/08/08","02:50",0.0,27.5,82.0,997.4,110.8,1.0,2.9,109.6,0.00,24.2,25.9,"02:41:44",1
"23/08/08","03:00",0.0,27.5,82.2,997.2,88.2,1.0,3.4,64.7,0.00,24.2,25.9,"02:56:40",1
"23/08/08","03:10",0.0,27.5,82.5,997.0,78.5,1.0,2.1,53.9,0.00,24.3,25.8,"03:03:04",1
"23/08/08","03:20",0.0,27.4,82.8,997.2,111.2,1.1,4.1,179.8,0.00,24.3,25.9,"03:12:16",1
"23/08/08","03:30",0.0,27.4,82.9,997.7,117.0,1.1,3.6,93.3,0.00,24.3,25.7,"03:23:36",1
"23/08/08","03:40",0.0,27.5,82.9,997.4,118.8,1.3,3.6,132.2,0.00,24.4,25.8,"03:31:12",1
"23/08/08","03:50",0.0,27.4,83.1,997.4,104.2,1.2,4.2,76.9,0.00,24.3,25.7,"03:48:40",1
"23/08/08","04:00",0.0,27.3,83.6,997.7,120.5,1.1,3.1,60.6,0.00,24.3,25.8,"03:51:12",1
"23/08/08","04:10",0.0,27.2,83.8,997.7,107.1,1.1,2.8,74.9,0.00,24.3,26.0,"04:06:24",1
"23/08/08","04:20",0.0,27.2,83.9,997.7,101.9,1.0,2.1,191.3,0.00,24.3,25.9,"04:10:16",1
"23/08/08","04:30",0.0,27.2,83.8,997.7,76.3,1.0,2.1,112.2,0.00,24.3,25.8,"04:22:32",1
"23/08/08","04:40",0.0,27.3,83.9,997.7,83.9,0.8,2.2,52.5,0.00,24.4,25.9,"04:34:00",1
"23/08/08","04:50",0.0,27.3,83.8,997.7,86.9,1.1,3.7,98.2,0.00,24.4,25.7,"04:44:48",1
"23/08/08","05:00",0.0,27.3,83.7,997.7,117.9,1.0,2.2,89.6,0.00,24.3,26.0,"04:53:12",1
"23/08/08","05:10",0.0,27.3,83.7,997.9,96.8,0.8,2.5,119.1,0.00,24.3,25.8,"05:08:56",1
"23/08/08","05:20",0.2,27.2,84.2,998.2,93.9,0.7,2.1,52.4,0.00,24.3,25.7,"05:10:56",1
"23/08/08","05:30",0.0,26.9,85.4,998.4,106.2,0.7,2.4,108.4,0.00,24.3,25.8,"05:22:32",1
"23/08/08","05:40",0.0,26.7,86.3,998.4,109.6,0.7,2.5,123.3,0.00,24.3,25.7,"05:35:44",1
"23/08/08","05:50",0.0,26.8,86.9,998.6,59.3,0.8,1.9,350.6,0.00,24.5,25.7,"05:49:04",1
"23/08/08","06:00",0.0,26.6,87.3,998.6,66.1,0.6,1.7,58.0,0.00,24.4,25.8,"05:53:44",1
"23/08/08","06:10",0.4,26.5,87.8,998.6,95.4,0.7,1.9,110.3,0.00,24.4,25.7,"06:01:52",1
"23/08/08","06:20",0.4,26.5,88.2,999.1,127.4,0.6,1.9,124.4,0.01,24.4,25.7,"06:12:56",1
"23/08/08","06:30",0.8,26.4,88.6,999.1,83.9,0.6,2.1,108.1,0.01,24.4,25.7,"06:28:16",1
"23/08/08","06:40",0.4,26.3,89.1,999.1,104.6,0.3,1.4,23.5,0.01,24.4,25.9,"06:31:36",1
"23/08/08","06:50",0.8,26.2,89.5,999.3,96.6,0.7,1.6,62.5,0.01,24.4,25.7,"06:45:28",1
"23/08/08","07:00",0.2,26.1,89.9,999.6,103.6,0.5,1.9,115.3,0.04,24.4,25.7,"06:55:52",1
"23/08/08","07:10",0.6,26.1,90.2,999.6,118.7,0.6,1.8,137.1,0.04,24.4,25.8,"07:00:16",1
"23/08/08","07:20",0.0,26.1,90.6,999.3,113.9,0.6,1.3,103.2,0.02,24.5,25.8,"07:12:32",1
"23/08/08","07:30",0.6,26.1,90.9,999.3,89.1,0.8,2.5,79.7,0.03,24.5,25.6,"07:25:20",1
"23/08/08","07:40",0.2,26.3,91.2,999.3,96.4,0.8,2.0,344.2,0.09,24.8,25.6,"07:36:08",1
"23/08/08","07:50",0.0,26.5,91.3,999.3,77.3,0.7,2.5,100.2,0.12,25.0,25.7,"07:46:56",1
"23/08/08","08:00",0.0,26.4,91.3,998.9,95.2,0.8,2.6,124.1,0.10,24.9,25.7,"07:58:40",1
"23/08/08","08:10",0.0,26.3,91.4,999.1,112.7,1.0,3.1,110.7,0.10,24.8,25.7,"08:09:28",1
"23/08/08","08:20",0.0,26.5,91.2,999.1,111.4,1.0,4.7,149.6,0.10,25.0,25.7,"08:19:52",1
"23/08/08","08:30",0.0,26.6,91.1,999.1,116.7,1.1,2.6,109.9,0.13,25.1,25.6,"08:28:32",1
"23/08/08","08:40",0.0,26.8,90.9,999.3,118.3,1.0,2.2,177.2,0.10,25.2,25.7,"08:35:44",1
"23/08/08","08:50",0.0,27.0,90.6,999.6,133.8,1.0,2.4,100.6,0.11,25.4,25.7,"08:43:36",1
"23/08/08","09:00",0.0,26.9,90.1,999.3,105.9,1.2,3.3,87.9,0.09,25.2,25.7,"08:51:28",1
"23/08/08","09:10",0.0,27.0,89.8,999.6,106.7,0.8,2.6,118.8,0.11,25.2,25.8,"09:07:28",1
"23/08/08","09:20",0.0,27.0,89.4,999.1,106.0,1.0,2.8,139.4,0.08,25.1,25.9,"09:12:40",1
"23/08/08","09:30",0.0,27.2,88.6,1000.0,79.2,0.8,2.6,69.6,0.07,25.2,25.8,"09:29:20",1
"23/08/08","09:40",0.0,28.1,87.9,999.6,123.1,1.1,2.4,99.9,0.29,25.9,25.7,"09:30:08",1
"23/08/08","09:50",0.0,28.7,86.4,999.1,74.9,1.0,2.6,124.5,0.32,26.2,26.0,"09:42:56",1
"23/08/08","10:00",0.0,29.8,83.1,999.1,86.0,1.1,3.1,72.8,0.49,26.7,25.8,"09:54:24",1
"23/08/08","10:10",0.0,30.8,79.8,999.6,122.3,1.6,4.2,106.0,0.50,26.9,25.8,"10:04:00",1
"23/08/08","10:20",0.0,31.2,74.0,1000.3,110.5,1.7,3.9,76.1,0.52,26.1,25.9,"10:11:12",1
"23/08/08","10:30",0.0,30.4,74.1,1000.3,120.8,1.7,4.1,121.9,0.20,25.3,25.9,"10:23:28",1
"23/08/08","10:40",0.0,30.1,75.4,999.8,115.7,1.5,5.2,123.8,0.17,25.3,26.1,"10:30:40",1
"23/08/08","10:50",0.0,30.3,75.8,999.6,96.3,1.8,3.7,45.7,0.22,25.6,25.9,"10:48:40",1
"23/08/08","11:00",0.0,30.4,74.7,999.6,98.0,1.6,3.1,150.9,0.20,25.4,26.2,"10:54:00",1
"23/08/08","11:10",0.0,30.7,74.3,999.3,99.3,1.6,5.0,133.0,0.21,25.6,25.9,"11:01:44",1
"23/08/08","11:20",0.0,30.4,74.3,999.3,91.4,1.3,3.3,111.3,0.10,25.3,26.1,"11:12:48",1
"23/08/08","11:30",0.0,30.4,74.4,999.1,89.4,1.3,3.1,69.5,0.12,25.4,26.2,"11:28:08",1
"23/08/08","11:40",0.0,30.3,74.2,999.3,111.3,2.0,6.0,107.5,0.12,25.2,26.3,"11:38:32",1
"23/08/08","11:50",0.0,30.9,73.0,998.9,122.6,2.1,6.4,113.7,0.24,25.5,26.2,"11:44:40",1
"23/08/08","12:00",0.0,31.0,71.9,999.3,100.7,2.1,4.2,129.4,0.19,25.4,26.2,"11:55:12",1
"23/08/08","12:10",0.0,31.0,71.4,998.9,105.0,1.8,4.4,98.0,0.15,25.3,26.3,"12:00:40",1
"23/08/08","12:20",0.0,31.2,71.1,998.9,119.9,1.6,4.2,90.7,0.18,25.4,26.2,"12:19:36",1
"23/08/08","12:30",0.0,31.5,70.4,999.3,108.6,1.8,3.2,82.9,0.22,25.5,26.4,"12:21:52",1
"23/08/08","12:40",0.0,31.3,69.7,999.3,115.0,1.8,3.9,163.5,0.16,25.1,26.3,"12:34:56",1
"23/08/08","12:50",0.0,31.0,70.0,998.9,97.7,1.8,4.7,117.3,0.13,24.9,26.3,"12:45:36",1
"23/08/08","13:00",0.0,31.0,70.6,998.9,86.8,1.8,5.4,82.6,0.14,25.1,26.5,"12:56:56",1
"23/08/08","13:10",0.0,31.1,70.9,998.4,118.0,2.3,6.2,110.4,0.18,25.2,26.7,"13:02:32",1
"23/08/08","13:20",0.0,31.3,70.0,998.9,110.1,1.8,4.0,51.0,0.17,25.2,26.4,"13:10:32",1
"23/08/08","13:30",0.0,31.3,69.9,998.9,103.3,1.7,3.5,107.9,0.15,25.2,26.5,"13:28:56",1
"23/08/08","13:40",0.0,31.6,69.3,998.9,109.8,2.2,4.2,116.7,0.23,25.3,26.6,"13:32:40",1
"23/08/08","13:50",0.0,31.8,68.2,998.9,112.4,2.2,4.5,49.7,0.19,25.2,26.4,"13:40:02",1
"23/08/08","14:00",0.0,31.3,68.9,998.9,110.8,2.1,5.2,74.7,0.08,24.9,26.6,"13:56:16",1
"23/08/08","14:10",0.0,31.0,69.9,999.1,141.9,2.0,5.6,129.6,0.08,24.9,26.8,"14:07:20",1
"23/08/08","14:20",0.0,30.8,70.2,998.6,127.6,1.7,3.9,155.4,0.07,24.8,26.5,"14:13:44",1
"23/08/08","14:30",0.0,30.9,70.5,998.6,118.2,1.8,5.2,120.6,0.11,24.9,26.4,"14:22:48",1
"23/08/08","14:40",0.0,30.9,69.5,998.2,133.2,2.3,4.5,153.2,0.11,24.7,26.6,"14:32:24",1
"23/08/08","14:50",0.0,30.8,69.4,998.4,118.2,1.6,3.4,108.2,0.05,24.6,26.4,"14:42:08",1
"23/08/08","15:00",0.0,30.7,69.0,998.2,97.2,1.6,4.2,96.4,0.05,24.4,26.9,"14:52:32",1
"23/08/08","15:10",0.0,31.0,68.7,998.2,95.3,1.7,4.0,95.0,0.10,24.6,26.3,"15:04:56",1
"23/08/08","15:20",0.0,31.1,68.8,998.6,120.8,1.1,2.6,108.6,0.09,24.7,26.6,"15:12:16",1
"23/08/08","15:30",0.0,31.2,68.9,998.6,104.2,1.6,3.5,75.7,0.13,24.8,26.7,"15:24:08",1
"23/08/08","15:40",0.0,31.2,68.8,998.9,98.4,1.6,3.9,61.8,0.08,24.8,26.6,"15:36:24",1
"23/08/08","15:50",0.0,30.7,69.9,999.3,89.7,1.7,5.1,74.7,0.07,24.6,26.6,"15:42:24",1
"23/08/08","16:00",0.0,30.2,71.5,998.9,95.8,1.7,4.1,91.2,0.05,24.5,26.7,"15:52:48",1
"23/08/08","16:10",0.0,30.2,72.1,998.6,100.2,1.5,2.8,48.9,0.06,24.7,26.5,"16:05:28",1
"23/08/08","16:20",0.0,30.4,71.5,998.6,82.1,1.5,3.3,90.3,0.08,24.7,26.7,"16:17:04",1
"23/08/08","16:30",0.0,30.5,71.8,998.9,108.2,1.3,3.1,130.2,0.09,24.9,26.5,"16:27:36",1
"23/08/08","16:40",0.0,30.6,71.5,999.1,99.1,1.6,3.5,86.4,0.10,24.9,26.6,"16:38:48",1
"23/08/08","16:50",0.0,30.5,71.7,998.9,98.6,1.6,3.4,87.7,0.07,24.8,26.6,"16:42:24",1
"23/08/08","17:00",0.0,30.4,72.0,998.9,106.9,1.6,4.0,133.5,0.06,24.8,26.6,"16:53:52",1
"23/08/08","17:10",0.0,30.3,72.9,999.1,106.5,1.2,3.5,34.0,0.03,24.9,26.6,"17:06:24",1
"23/08/08","17:20",0.0,29.9,74.1,998.9,99.0,1.3,4.5,93.4,0.00,24.8,26.6,"17:14:56",1
"23/08/08","17:30",0.0,29.7,74.8,998.9,89.3,1.2,3.4,93.8,0.00,24.8,26.6,"17:22:16",1
"23/08/08","17:40",0.0,29.5,75.2,998.9,93.1,1.5,3.6,122.7,0.01,24.7,26.6,"17:30:56",1
"23/08/08","17:50",0.0,29.5,74.9,998.9,99.3,1.8,4.4,127.9,0.02,24.6,26.7,"17:42:16",1
"23/08/08","18:00",0.0,29.5,74.7,998.6,94.2,1.3,4.8,121.6,0.02,24.6,26.5,"17:59:28",1
"23/08/08","18:10",0.0,29.4,74.6,998.9,94.9,1.5,4.4,102.8,0.00,24.5,26.7,"18:01:20",1
"23/08/08","18:20",0.0,29.3,74.8,998.6,94.2,1.5,3.5,96.1,0.00,24.4,26.7,"18:17:20",1
"23/08/08","18:30",0.0,29.3,75.0,998.9,92.3,1.2,3.4,88.6,0.00,24.4,26.5,"18:21:28",1
"23/08/08","18:40",0.0,29.2,75.4,999.1,94.2,1.2,3.3,85.5,0.00,24.4,26.6,"18:37:52",1
"23/08/08","18:50",0.0,29.1,75.7,999.3,103.0,1.1,3.3,115.5,0.00,24.4,26.6,"18:48:24",1
"23/08/08","19:00",0.0,29.0,76.0,999.6,99.5,1.1,2.9,129.8,0.00,24.4,26.3,"18:58:00",1
"23/08/08","19:10",0.0,28.9,76.3,999.8,92.9,0.8,2.7,80.6,0.00,24.3,26.5,"19:06:00",1
"23/08/08","19:20",0.0,28.9,76.7,999.8,87.7,0.8,3.2,121.5,0.00,24.4,26.3,"19:12:08",1
"23/08/08","19:30",0.0,28.8,77.1,999.8,77.7,0.7,1.8,87.9,0.00,24.4,26.4,"19:21:52",1
"23/08/08","19:40",0.0,28.8,77.5,999.8,91.2,0.8,2.8,106.0,0.00,24.5,26.5,"19:38:16",1
"23/08/08","19:50",0.0,28.7,77.6,1000.0,62.3,0.8,3.1,41.3,0.00,24.4,26.4,"19:45:12",1
"23/08/08","20:00",0.0,28.7,77.9,1000.3,67.5,0.6,1.7,109.6,0.00,24.5,26.4,"19:55:04",1
"23/08/08","20:10",0.0,28.7,78.2,1000.0,81.1,0.7,1.7,92.8,0.00,24.6,26.4,"20:00:48",1
"23/08/08","20:20",0.0,28.7,78.2,1000.3,102.3,1.0,1.9,99.3,0.00,24.6,26.3,"20:10:56",1
"23/08/08","20:30",0.0,28.6,78.5,1000.3,59.1,0.6,1.9,86.2,0.00,24.5,26.3,"20:27:04",1
"23/08/08","20:40",0.0,28.6,78.6,1000.8,66.2,1.0,2.4,92.5,0.00,24.6,26.0,"20:34:56",1
"23/08/08","20:50",0.0,28.6,78.4,1000.5,88.7,0.8,2.1,118.6,0.00,24.5,26.3,"20:43:36",1
"23/08/08","21:00",0.0,28.6,78.4,1000.5,104.7,1.0,2.8,74.1,0.00,24.5,26.1,"20:55:44",1
"23/08/08","21:10",0.0,28.6,78.4,1000.5,101.9,1.0,2.5,111.8,0.00,24.5,26.2,"21:04:16",1
"23/08/08","21:20",0.0,28.7,78.2,1000.8,106.5,0.8,2.5,105.9,0.00,24.6,26.3,"21:11:52",1
"23/08/08","21:30",0.0,28.6,78.3,1000.5,87.8,1.0,2.8,94.1,0.00,24.5,26.1,"21:28:00",1
"23/08/08","21:40",0.0,28.5,78.7,1000.8,69.1,0.6,1.9,123.2,0.00,24.5,26.2,"21:35:28",1
"23/08/08","21:50",0.0,28.3,79.2,1000.8,109.3,0.5,1.9,86.4,0.00,24.4,26.3,"21:42:40",1
"23/08/08","22:00",0.0,28.3,79.8,1000.8,51.7,0.5,1.4,105.9,0.00,24.5,26.1,"21:52:24",1
"23/08/08","22:10",0.0,28.3,80.0,1000.8,84.9,0.8,1.9,114.2,0.00,24.6,26.2,"22:05:44",1
"23/08/08","22:20",0.0,28.4,79.7,1000.5,51.0,0.7,2.6,31.1,0.00,24.6,26.1,"22:14:48",1
"23/08/08","22:30",0.0,28.5,79.5,1000.5,72.2,0.6,1.9,83.0,0.00,24.6,26.3,"22:23:12",1
"23/08/08","22:40",0.0,28.5,79.4,1001.0,75.5,0.7,2.0,22.9,0.00,24.6,26.2,"22:36:40",1
"23/08/08","22:50",0.0,28.5,79.4,1000.8,73.5,0.7,2.1,88.9,0.00,24.6,26.0,"22:44:00",1
"23/08/08","23:00",0.0,28.5,79.4,1000.8,75.1,1.0,2.2,157.5,0.00,24.6,26.2,"22:59:20",1
"23/08/08","23:10",0.0,28.5,79.4,1000.5,90.8,0.8,1.8,101.0,0.00,24.6,26.1,"23:04:00",1
"23/08/08","23:20",0.0,28.5,79.4,1000.5,53.7,0.7,2.1,110.3,0.00,24.6,26.1,"23:18:08",1
"23/08/08","23:30",0.0,28.4,79.7,1000.5,81.9,0.7,1.9,99.1,0.00,24.6,26.1,"23:22:00",1
"23/08/08","23:40",0.0,28.4,79.6,1000.3,122.8,1.1,2.9,102.8,0.00,24.6,26.1,"23:37:52",1
"23/08/08","23:50",0.0,28.4,79.6,1000.3,82.2,0.8,2.4,103.4,0.00,24.6,26.1,"23:41:44",1
"23/08/08","24:00",0.0,28.3,79.8,1000.3,99.8,0.5,1.8,90.5,0.00,24.5,26.0,"23:51:52",1
